| time (UTC) | temp F | wind direction | speed knots | gust knots | rain 1hr in | rain 24hr in | rain mn in | humidity % | barometer mb |
| 20260506234040 | 56 | 327 | 1.7 | 2.6 | 0.00 | 0.00 | 0.00 | 73 | 1012.1 |
| 20260506233024 | 56 | 334 | 1.7 | 3.5 | 0.00 | 0.00 | 0.00 | 73 | 1012.3 |
| 20260506232112 | 56 | 312 | 2.6 | 3.5 | 0.00 | 0.00 | 0.00 | 74 | 1012.3 |
| 20260506231057 | 56 | 344 | 1.7 | 3.5 | 0.00 | 0.00 | 0.00 | 74 | 1012.2 |
| 20260506230044 | 56 | 306 | 1.7 | 2.6 | 0.00 | 0.00 | 0.00 | 74 | 1012.2 |
| 20260506225028 | 57 | 320 | 0.9 | 1.7 | 0.00 | 0.00 | 0.00 | 74 | 1012.2 |
| 20260506224127 | 57 | 315 | 1.7 | 2.6 | 0.00 | 0.00 | 0.00 | 74 | 1012.3 |
| 20260506223053 | 58 | 312 | 1.7 | 2.6 | 0.00 | 0.00 | 0.00 | 74 | 1012.3 |
| 20260506222039 | 58 | 338 | 0.9 | 3.5 | 0.00 | 0.00 | 0.00 | 74 | 1012.4 |
| 20260506221027 | 59 | 345 | 0.9 | 2.6 | 0.00 | 0.00 | 0.00 | 73 | 1012.4 |
| 20260506220114 | 59 | 335 | 0.9 | 1.7 | 0.00 | 0.00 | 0.00 | 73 | 1012.4 |
| 20260506215122 | 59 | 319 | 0.9 | 2.6 | 0.00 | 0.00 | 0.00 | 72 | 1012.4 |
| 20260506214049 | 60 | 333 | 0.9 | 1.7 | 0.00 | 0.00 | 0.00 | 72 | 1012.4 |
| 20260506213036 | 60 | 315 | 0.0 | 1.7 | 0.00 | 0.00 | 0.00 | 71 | 1012.4 |
| 20260506212113 | 61 | 0.0 | 0.9 | 0.00 | 0.00 | 0.00 | 70 | 1012.3 | |
| 20260506211103 | 61 | 0.0 | 0.9 | 0.00 | 0.00 | 0.00 | 70 | 1012.3 | |
| 20260506210029 | 61 | 68 | 0.0 | 1.7 | 0.00 | 0.00 | 0.00 | 70 | 1012.2 |
| 20260506205113 | 61 | 60 | 0.0 | 1.7 | 0.00 | 0.00 | 0.00 | 70 | 1011.9 |
| 20260506204047 | 62 | 90 | 0.0 | 1.7 | 0.00 | 0.00 | 0.00 | 70 | 1011.8 |
| 20260506203033 | 62 | 45 | 0.0 | 1.7 | 0.00 | 0.00 | 0.00 | 70 | 1011.7 |
| 20260506202138 | 62 | 23 | 0.0 | 1.7 | 0.00 | 0.00 | 0.00 | 69 | 1011.7 |
| 20260506201059 | 62 | 326 | 0.0 | 1.7 | 0.00 | 0.00 | 0.00 | 69 | 1011.6 |
| 20260506200042 | 62 | 315 | 0.0 | 1.7 | 0.00 | 0.00 | 0.00 | 68 | 1011.5 |
| 20260506195028 | 63 | 255 | 0.0 | 1.7 | 0.00 | 0.00 | 0.00 | 68 | 1011.3 |
| 20260506194113 | 63 | 344 | 0.0 | 1.7 | 0.00 | 0.00 | 0.00 | 67 | 1011.2 |
| 20260506193059 | 63 | 0 | 0.0 | 1.7 | 0.00 | 0.00 | 0.00 | 67 | 1011.1 |
| 20260506192047 | 63 | 26 | 0.9 | 1.7 | 0.00 | 0.00 | 0.00 | 65 | 1011.0 |
| 20260506191054 | 64 | 328 | 0.9 | 3.5 | 0.00 | 0.00 | 0.00 | 61 | 1010.9 |
| 20260506190019 | 65 | 330 | 0.9 | 1.7 | 0.00 | 0.00 | 0.00 | 60 | 1010.9 |
| 20260506185107 | 66 | 356 | 1.7 | 3.5 | 0.00 | 0.00 | 0.00 | 56 | 1010.7 |
| 20260506184054 | 68 | 335 | 1.7 | 2.6 | 0.00 | 0.00 | 0.00 | 54 | 1010.6 |
| 20260506183040 | 68 | 333 | 0.9 | 2.6 | 0.00 | 0.00 | 0.00 | 53 | 1010.6 |
| 20260506182048 | 67 | 339 | 1.7 | 3.5 | 0.00 | 0.00 | 0.00 | 54 | 1010.5 |
| 20260506181114 | 68 | 297 | 0.9 | 2.6 | 0.00 | 0.00 | 0.00 | 53 | 1010.4 |
| 20260506180100 | 70 | 270 | 2.6 | 7.0 | 0.00 | 0.00 | 0.00 | 52 | 1010.2 |
| 20260506175127 | 69 | 287 | 0.9 | 3.5 | 0.00 | 0.00 | 0.00 | 53 | 1010.3 |
| 20260506174030 | 69 | 355 | 1.7 | 4.3 | 0.00 | 0.00 | 0.00 | 52 | 1010.2 |
| 20260506173117 | 69 | 287 | 1.7 | 4.3 | 0.00 | 0.00 | 0.00 | 52 | 1010.1 |
| 20260506172105 | 69 | 226 | 1.7 | 5.2 | 0.00 | 0.00 | 0.00 | 52 | 1010.2 |
| 20260506171053 | 68 | 326 | 1.7 | 3.5 | 0.00 | 0.00 | 0.00 | 51 | 1010.3 |
| 20260506170039 | 70 | 306 | 2.6 | 3.5 | 0.00 | 0.00 | 0.00 | 50 | 1010.4 |
| 20260506165023 | 71 | 349 | 2.6 | 5.2 | 0.00 | 0.00 | 0.00 | 50 | 1010.5 |
| 20260506164123 | 70 | 341 | 2.6 | 4.3 | 0.00 | 0.00 | 0.00 | 51 | 1010.5 |
| 20260506163108 | 69 | 38 | 1.7 | 3.5 | 0.00 | 0.00 | 0.00 | 50 | 1010.4 |
| 20260506162034 | 71 | 278 | 2.6 | 7.0 | 0.00 | 0.00 | 0.00 | 47 | 1010.5 |
| 20260506161041 | 72 | 224 | 2.6 | 7.0 | 0.00 | 0.00 | 0.00 | 47 | 1010.3 |
| 20260506160109 | 72 | 331 | 3.5 | 7.0 | 0.00 | 0.00 | 0.00 | 46 | 1010.2 |
| 20260506155056 | 73 | 149 | 2.6 | 5.2 | 0.00 | 0.00 | 0.00 | 43 | 1010.3 |
| 20260506154042 | 73 | 59 | 3.5 | 5.2 | 0.00 | 0.00 | 0.00 | 43 | 1010.3 |
| 20260506153030 | 73 | 266 | 2.6 | 6.1 | 0.00 | 0.00 | 0.00 | 44 | 1010.2 |
| 20260506152137 | 72 | 345 | 3.5 | 7.0 | 0.00 | 0.00 | 0.00 | 49 | 1010.2 |
| 20260506151105 | 70 | 345 | 2.6 | 7.8 | 0.00 | 0.00 | 0.00 | 53 | 1010.2 |
| 20260506150051 | 69 | 356 | 2.6 | 4.3 | 0.00 | 0.00 | 0.00 | 53 | 1010.3 |
| 20260506145038 | 69 | 61 | 2.6 | 6.1 | 0.00 | 0.00 | 0.00 | 53 | 1010.6 |
| 20260506144023 | 70 | 275 | 3.5 | 7.0 | 0.00 | 0.00 | 0.00 | 53 | 1010.6 |
| 20260506143110 | 70 | 322 | 2.6 | 6.1 | 0.00 | 0.00 | 0.00 | 53 | 1010.5 |
| 20260506142053 | 70 | 279 | 2.6 | 6.1 | 0.00 | 0.00 | 0.00 | 53 | 1010.6 |
| 20260506141100 | 71 | 301 | 3.5 | 6.1 | 0.00 | 0.00 | 0.00 | 52 | 1010.8 |
| 20260506140024 | 71 | 252 | 3.5 | 7.0 | 0.00 | 0.00 | 0.00 | 53 | 1010.7 |
| 20260506135108 | 71 | 199 | 3.5 | 5.2 | 0.00 | 0.00 | 0.00 | 53 | 1010.8 |
| 20260506134054 | 71 | 350 | 3.5 | 7.0 | 0.00 | 0.00 | 0.00 | 52 | 1010.7 |
| 20260506133040 | 73 | 338 | 4.3 | 7.8 | 0.00 | 0.00 | 0.00 | 47 | 1010.7 |
| 20260506132050 | 71 | 324 | 2.6 | 3.5 | 0.00 | 0.00 | 0.00 | 50 | 1010.7 |
| 20260506131134 | 72 | 315 | 4.3 | 9.6 | 0.00 | 0.00 | 0.00 | 48 | 1010.7 |
| 20260506125050 | 75 | 292 | 3.5 | 5.2 | 0.00 | 0.00 | 0.00 | 42 | 1010.9 |
| 20260506124035 | 75 | 259 | 4.3 | 9.6 | 0.00 | 0.00 | 0.00 | 42 | 1010.8 |
| 20260506123119 | 74 | 250 | 4.3 | 11.3 | 0.00 | 0.00 | 0.00 | 43 | 1010.8 |
| 20260506122058 | 75 | 221 | 3.5 | 7.0 | 0.00 | 0.00 | 0.00 | 42 | 1010.8 |
| 20260506121040 | 75 | 215 | 5.2 | 9.6 | 0.00 | 0.00 | 0.00 | 42 | 1011.0 |
| 20260506120121 | 75 | 239 | 4.3 | 9.6 | 0.00 | 0.00 | 0.00 | 42 | 1011.0 |
| 20260506115104 | 74 | 236 | 6.1 | 13.0 | 0.00 | 0.00 | 0.00 | 42 | 1010.9 |
| 20260506114049 | 76 | 239 | 3.5 | 7.0 | 0.00 | 0.00 | 0.00 | 40 | 1011.0 |
| 20260506113035 | 75 | 215 | 4.3 | 7.0 | 0.00 | 0.00 | 0.00 | 40 | 1011.0 |
| 20260506112021 | 76 | 222 | 3.5 | 6.1 | 0.00 | 0.00 | 0.00 | 39 | 1011.0 |
| 20260506111107 | 76 | 172 | 4.3 | 7.8 | 0.00 | 0.00 | 0.00 | 39 | 1011.1 |
| 20260506110054 | 76 | 252 | 4.3 | 9.6 | 0.00 | 0.00 | 0.00 | 39 | 1011.0 |
| 20260506105101 | 76 | 225 | 4.3 | 7.8 | 0.00 | 0.00 | 0.00 | 38 | 1011.2 |
| 20260506104026 | 78 | 228 | 3.5 | 7.0 | 0.00 | 0.00 | 0.00 | 36 | 1011.2 |
| 20260506103136 | 75 | 254 | 1.7 | 4.3 | 0.00 | 0.00 | 0.00 | 38 | 1011.2 |
| 20260506102102 | 76 | 217 | 2.6 | 4.3 | 0.00 | 0.00 | 0.00 | 39 | 1011.3 |
| 20260506101108 | 73 | 230 | 0.9 | 2.6 | 0.00 | 0.00 | 0.00 | 41 | 1011.4 |
| 20260506100035 | 72 | 252 | 0.9 | 3.5 | 0.00 | 0.00 | 0.00 | 45 | 1011.6 |
| 20260506095021 | 73 | 213 | 3.5 | 5.2 | 0.00 | 0.00 | 0.00 | 41 | 1011.5 |
| 20260506094143 | 73 | 249 | 0.9 | 2.6 | 0.00 | 0.00 | 0.00 | 41 | 1011.5 |
| 20260506093046 | 75 | 275 | 1.7 | 3.5 | 0.00 | 0.00 | 0.00 | 40 | 1011.4 |
| 20260506092127 | 73 | 243 | 3.5 | 5.2 | 0.00 | 0.00 | 0.00 | 40 | 1011.3 |
| 20260506091115 | 77 | 287 | 1.7 | 3.5 | 0.00 | 0.00 | 0.00 | 40 | 1011.3 |
| 20260506085047 | 77 | 11 | 1.7 | 3.5 | 0.00 | 0.00 | 0.00 | 40 | 1011.4 |
| 20260506084034 | 74 | 214 | 2.6 | 5.2 | 0.00 | 0.00 | 0.00 | 40 | 1011.5 |
| 20260506083039 | 73 | 237 | 1.7 | 3.5 | 0.00 | 0.00 | 0.00 | 42 | 1011.4 |
| 20260506082107 | 73 | 195 | 2.6 | 3.5 | 0.00 | 0.00 | 0.00 | 41 | 1011.5 |
| 20260506081051 | 74 | 311 | 1.7 | 3.5 | 0.00 | 0.00 | 0.00 | 42 | 1011.4 |
| 20260506073053 | 68 | 330 | 1.7 | 3.5 | 0.00 | 0.00 | 0.00 | 54 | 1011.4 |
| 20260506072040 | 66 | 327 | 0.9 | 2.6 | 0.00 | 0.00 | 0.00 | 59 | 1011.4 |
| 20260506071026 | 64 | 308 | 1.7 | 3.5 | 0.00 | 0.00 | 0.00 | 60 | 1011.4 |
| 20260506070113 | 63 | 330 | 1.7 | 3.5 | 0.00 | 0.00 | 0.00 | 66 | 1011.4 |
| 20260506062116 | 55 | 321 | 2.6 | 3.5 | 0.00 | 0.00 | 0.00 | 79 | 1011.2 |
| 20260506061103 | 55 | 347 | 2.6 | 3.5 | 0.00 | 0.00 | 0.00 | 79 | 1011.2 |
| 20260506051121 | 53 | 262 | 0.9 | 1.7 | 0.00 | 0.00 | 0.00 | 83 | 1011.0 |
| 20260506045113 | 53 | 302 | 1.7 | 2.6 | 0.00 | 0.00 | 0.00 | 83 | 1010.9 |
| 20260506044103 | 53 | 321 | 1.7 | 3.5 | 0.00 | 0.00 | 0.00 | 84 | 1010.9 |
| 20260506043048 | 54 | 306 | 1.7 | 3.5 | 0.00 | 0.00 | 0.00 | 84 | 1010.9 |
| 20260506042035 | 54 | 315 | 1.7 | 2.6 | 0.00 | 0.00 | 0.00 | 84 | 1010.8 |
| 20260506041139 | 54 | 307 | 1.7 | 3.5 | 0.00 | 0.00 | 0.00 | 84 | 1010.7 |
| 20260506040105 | 54 | 290 | 0.9 | 3.5 | 0.00 | 0.00 | 0.00 | 83 | 1010.8 |
| 20260506035052 | 54 | 332 | 1.7 | 3.5 | 0.00 | 0.00 | 0.00 | 82 | 1010.7 |
| 20260506034039 | 55 | 323 | 1.7 | 3.5 | 0.00 | 0.00 | 0.00 | 80 | 1010.7 |
| 20260506033026 | 55 | 322 | 1.7 | 3.5 | 0.00 | 0.00 | 0.00 | 81 | 1010.9 |
| 20260506032115 | 55 | 303 | 1.7 | 2.6 | 0.00 | 0.00 | 0.00 | 81 | 1011.0 |
| 20260506031059 | 55 | 343 | 1.7 | 3.5 | 0.00 | 0.00 | 0.00 | 82 | 1011.0 |
| 20260506030045 | 55 | 315 | 1.7 | 2.6 | 0.00 | 0.00 | 0.00 | 82 | 1011.0 |
| 20260506025033 | 54 | 315 | 1.7 | 3.5 | 0.00 | 0.00 | 0.00 | 86 | 1011.0 |
| 20260506024157 | 54 | 305 | 1.7 | 3.5 | 0.00 | 0.00 | 0.00 | 86 | 1010.8 |
| 20260506023134 | 54 | 347 | 1.7 | 3.5 | 0.00 | 0.00 | 0.00 | 86 | 1010.8 |
| 20260506022036 | 54 | 340 | 2.6 | 3.5 | 0.00 | 0.00 | 0.00 | 86 | 1010.8 |
| 20260506021020 | 54 | 327 | 1.7 | 2.6 | 0.00 | 0.00 | 0.00 | 85 | 1010.7 |
| 20260506020127 | 54 | 320 | 2.6 | 3.5 | 0.00 | 0.00 | 0.00 | 85 | 1010.7 |
| 20260506015053 | 54 | 29 | 2.6 | 3.5 | 0.00 | 0.00 | 0.00 | 84 | 1010.8 |
| 20260506014037 | 55 | 342 | 2.6 | 3.5 | 0.00 | 0.00 | 0.00 | 81 | 1010.8 |
| 20260506013024 | 55 | 344 | 2.6 | 3.5 | 0.00 | 0.00 | 0.00 | 81 | 1011.0 |
| 20260506012131 | 56 | 335 | 3.5 | 5.2 | 0.00 | 0.00 | 0.00 | 81 | 1011.0 |
| 20260506011100 | 56 | 346 | 1.7 | 3.5 | 0.00 | 0.00 | 0.00 | 80 | 1011.0 |
| 20260506010045 | 56 | 348 | 0.9 | 1.7 | 0.00 | 0.00 | 0.00 | 79 | 1011.1 |
| 20260506005032 | 56 | 2 | 1.7 | 2.6 | 0.00 | 0.00 | 0.00 | 78 | 1011.2 |
| 20260506004118 | 56 | 310 | 0.9 | 2.6 | 0.00 | 0.00 | 0.00 | 76 | 1011.4 |
| 20260506003126 | 57 | 337 | 0.9 | 1.7 | 0.00 | 0.00 | 0.00 | 76 | 1011.4 |
| 20260506002056 | 57 | 346 | 1.7 | 2.6 | 0.00 | 0.00 | 0.00 | 75 | 1011.4 |
| 20260506001045 | 58 | 330 | 1.7 | 3.5 | 0.00 | 0.00 | 0.00 | 73 | 1011.5 |
| 20260506000035 | 58 | 343 | 1.7 | 3.5 | 0.00 | 0.00 | 0.00 | 72 | 1011.5 |
| 20260505235026 | 59 | 330 | 0.9 | 2.6 | 0.00 | 0.00 | 0.00 | 70 | 1011.5 |